Regional Weather Roundup
Issued by NWS

Home | Current Version | Previous Version | Graphics & Text | Print | Product List | Glossary On
Versions: 1 2 3 4 5 6 7 8 9 10 11 12 13 14 15 16 17 18 19 20 21 22 23 24 25 26 27 28 29 30 31 32 33 34 35 36 37 38 39 40 41 42 43 44 45 46 47 48 49 50
000
ASUS45 KBOI 250710
RWRID

IDAHO REGIONAL WEATHER ROUNDUP
NATIONAL WEATHER SERVICE BOISE ID
100 AM MDT FRI MAY 25 2018

NOTE: "FAIR" INDICATES FEW OR NO CLOUDS BELOW 12000 FEET
WITH NO SIGNIFICANT WEATHER AND/OR OBSTRUCTIONS TO VISIBILITY

IDZ012-014-250800-
SOUTHWEST IDAHO


CITY           SKY/WX    TMP DP  RH WIND       PRES   REMARKS
BOISE          MOCLDY    72  47  40 SE7       29.93S
CALDWELL       MOCLDY    65  52  62 E9        29.93S
MOUNTAIN HOME  PTCLDY    64  50  59 NE8       29.94F
$$

IDZ016-017-250800-
SOUTHCENTRAL IDAHO


CITY           SKY/WX    TMP DP  RH WIND       PRES   REMARKS
BURLEY         CLEAR     58  51  78 CALM      30.02F
JEROME         CLEAR     58  51  78 N6        30.03S
TWIN FALLS     CLEAR     54  48  80 SE8       30.01F
$$

IDZ019>023-250800-
SOUTHEAST IDAHO


CITY           SKY/WX    TMP DP  RH WIND       PRES   REMARKS
IDAHO FALLS    CLEAR     50  47  89 CALM      30.10S
POCATELLO      CLEAR     54  48  80 CALM      30.07S
REXBURG        CLEAR     52  49  89 N3        30.10S
$$

IDZ006-010-011-018-031-032-250800-
CENTRAL IDAHO MOUNTAINS


CITY           SKY/WX    TMP DP  RH WIND       PRES   REMARKS
MCCALL         CLEAR     51  47  86 NW5       30.07F
HAILEY         PTCLDY    54  46  76 NW9       30.13S
STANLEY          N/A     44  39  82 CALM      30.19R
SALMON         CLEAR     51  49  92 CALM      30.10S
CHALLIS        CLEAR     54  48  80 CALM      30.12S
$$

IDZ002-004-006-007-026-250800-
NORTHERN IDAHO


CITY           SKY/WX    TMP DP  RH WIND       PRES   REMARKS
LEWISTON       CLEAR     65  57  75 CALM      29.94S
LOWELL           N/A     57  57 100 CALM      30.01R
COEUR D`ALENE  CLEAR     65  56  72 SE8       29.95F
MULLAN PASS    PTCLDY    53  48  83 CALM      30.12S
$$



USA.gov is the U.S. government's official web portal to all federal, state and local government web resources and services.